Hourly Data Report for March 28, 1986

TIMMINS VICTOR POWER A
ONTARIO

48°34'11.000" N
81°22'36.000" W
294.70 m
6078285
71739
YTS

Download Data

Hourly Data (March 1986)
Hourly Data Report for March 28, 1986
TIME
LST
Temp Definition
°C
Dew Point Definition
°C
Rel Hum Definition
%
Precip. Amount Definition
mm

Wind Dir Definition
10's deg

Wind Spd Definition
km/h
Visibility Definition
km
Stn Press Definition
kPa
Hmdx Definition


Wind Chill Definition


Weather Definition


00:00 -3.6 -6.3 82   20 9 24.1 98.24   -7 Cloudy
01:00 -3.0 -5.6 82   19 13 24.1 98.20   -8 Cloudy
02:00 -2.4 -5.4 80   20 15 24.1 98.11   -7 Mainly Clear
03:00 -3.1 -6.3 79   19 15 24.1 98.01   -8 Mainly Clear
04:00 -3.2 -7.2 74   21 11 24.1 97.91   -7 Mainly Clear
05:00 -3.4 -7.2 75   20 13 24.1 97.84   -8 Mainly Clear
06:00 -3.7 -7.1 77   21 15 24.1 97.84   -9 Mainly Clear
07:00 -3.1 -6.0 80   20 19 24.1 97.78   -9 Mostly Cloudy
08:00 -1.7 -5.1 78   18 19 24.1 97.68   -7 Mostly Cloudy
09:00 -0.3 -4.2 75   18 22 24.1 97.55   -6 Cloudy
10:00 1.0 -3.4 72   19 22 19.3 97.48     Cloudy
11:00 2.5 -2.7 68   20 22 19.3 97.32     Cloudy
12:00 3.8 -2.1 65   18 28 19.3 97.12     Cloudy
13:00 4.9 -1.3 64   18 28 19.3 96.92     Cloudy
14:00 6.1 -0.8 61   19 28 19.3 96.62     Cloudy
15:00 8.4 -0.6 53   20 28 20.9 96.39     Mostly Cloudy
16:00 9.8 -0.8 48   21 30 24.1 96.29     Mostly Cloudy
17:00 9.6 -1.1 47   21 28 24.1 96.33     Cloudy
18:00 8.7 -0.9 51   21 13 24.1 96.39     Mostly Cloudy
19:00 7.3 -0.8 57   21 15 24.1 96.46     Mostly Cloudy
20:00 6.6 -0.7 59   22 13 24.1 96.52     Mainly Clear
21:00 6.0 -0.6 62   25 9 24.1 96.62     Clear
22:00 6.3 -0.1 64   26 19 24.1 96.66     Mostly Cloudy
23:00 6.4 0.1 64   26 15 24.1 96.76     Mostly Cloudy

Notes on Data Quality.

Legend

  • E = Estimated
  • M = Missing
  • NA = Not Available*
  • [empty] = Indicates an unobserved value
Date modified: